This demonstration page uses our WeatherBlox Daily Observations layout. Learn more.

39.92423, -83.80882

Hourly Observations for December 24, 2018

Temp ( °F °C ) Dew Point ( °F °C ) Humidity (%) Winds ( mph kmh ) Pressure ( in mb ) Visibility ( mi km ) Precip ( " mm )
12:56 am 00:56 Cloudy 32 0 30 -1.1 92 92 WSW 12 19 30.21 1023 10 16.0934 0 0
1:56 am 01:56 Cloudy 32 0 30 -1.1 92 92 SW 13 20 30.21 1023 10 16.0934 0 0
2:56 am 02:56 Mostly Clear 31 -0.6 29 -1.7 92 92 WSW 14 22 30.22 1023 10 16.0934 0 0
4:56 am 04:56 Clear 30 -1.1 28 -2.2 92 92 SW 14 22 30.23 1024 8 12.87472 0 0
5:56 am 05:56 Clear 29 -1.7 28 -2.2 96 96 SW 9 15 30.24 1024 10 16.0934 0 0
6:56 am 06:56 Mostly Clear 28 -2.2 27 -2.8 96 96 SW 10 17 30.26 1025 9 14.48406 0 0
7:56 am 07:56 Sunny 28 -2.2 27 -2.8 96 96 WSW 9 15 30.27 1025 8 12.87472 0 0
8:56 am 08:56 Sunny 29 -1.7 27 -2.8 92 92 WSW 10 17 30.28 1025 10 16.0934 0 0
9:56 am 09:56 Sunny 31 -0.6 28 -2.2 89 89 WSW 12 19 30.28 1026 10 16.0934 0 0
10:56 am 10:56 Sunny 33 0.6 27 -2.8 78 78 W 13 20 30.28 1025 10 16.0934 0 0
11:56 am 11:56 Sunny 35 1.7 28 -2.2 76 76 W 14 22 30.26 1025 10 16.0934 0 0
12:56 pm 12:56 Partly Cloudy 36 2.2 28 -2.2 73 73 W 17 28 30.25 1024 10 16.0934 0 0
1:24 pm 13:24 Mostly Cloudy 37 3 28 -2 70 70 W 16 26 30.27 1025 10 16.0934 0 0
1:51 pm 13:51 Partly Cloudy 36 2 27 -3 70 70 W 12 19 30.27 1025 10 16.0934 0 0
1:56 pm 13:56 Partly Cloudy 35 1.7 27 -2.8 72 72 W 13 20 30.25 1024 10 16.0934 0 0
2:56 pm 14:56 Partly Cloudy 38 3.3 27 -2.8 65 65 WNW 12 19 30.26 1025 10 16.0934 0 0
3:56 pm 15:56 Sunny 36 2.2 26 -3.3 67 67 NW 12 19 30.27 1025 10 16.0934 0 0
4:56 pm 16:56 Sunny 34 1.1 24 -4.4 67 67 WNW 9 15 30.28 1025 10 16.0934 0 0
5:56 pm 17:56 Clear 30 -1.1 24 -4.4 79 79 NNW 3 6 30.29 1026 10 16.0934 0 0
6:56 pm 18:56 Clear 30 -1.1 26 -3.3 85 85 Calm 30.31 1026 10 16.0934 0 0
7:56 pm 19:56 Clear 29 -1.7 27 -2.8 92 92 Calm 30.32 1027 10 16.0934 0 0
8:56 pm 20:56 Clear 28 -2.2 26 -3.3 92 92 Calm 30.3 1026 10 16.0934 0 0
9:56 pm 21:56 Clear 26 -3.3 25 -3.9 96 96 NE 3 6 30.3 1026 10 16.0934 0 0
10:56 pm 22:56 Clear 27 -2.8 24 -4.4 89 89 E 3 6 30.31 1026 10 16.0934 0 0
11:56 pm 23:56 Mostly Clear 25 -3.9 24 -4.4 96 96 ESE 3 6 30.31 1027 10 16.0934 0 0

Powered by AerisWeather